Year,Month,Day,Hour,Minute,Value (Times are PST for temperature in C)
2016,11,04,00,00,12.50
2016,11,04,00,01,12.60
2016,11,04,00,02,12.60
2016,11,04,00,03,12.60
2016,11,04,00,04,12.60
2016,11,04,00,05,12.60
2016,11,04,00,06,12.70
2016,11,04,00,07,12.70
2016,11,04,00,08,12.70
2016,11,04,00,09,12.70
2016,11,04,00,10,12.80
2016,11,04,00,11,12.90
2016,11,04,00,12,12.90
2016,11,04,00,13,13.00
2016,11,04,00,14,13.10
2016,11,04,00,15,13.20
2016,11,04,00,16,13.20
2016,11,04,00,17,13.20
2016,11,04,00,18,13.20
2016,11,04,00,19,13.30
2016,11,04,00,20,13.30
2016,11,04,00,21,13.30
2016,11,04,00,22,13.40
2016,11,04,00,23,13.40
2016,11,04,00,24,13.40
2016,11,04,00,25,13.40
2016,11,04,00,26,13.30
2016,11,04,00,27,13.30
2016,11,04,00,28,13.30
2016,11,04,00,29,13.30
2016,11,04,00,30,13.30
2016,11,04,00,31,13.30
2016,11,04,00,32,13.40
2016,11,04,00,33,13.40
2016,11,04,00,34,13.40
2016,11,04,00,35,13.30
2016,11,04,00,37,13.30
2016,11,04,00,38,13.30
2016,11,04,00,39,13.30
2016,11,04,00,40,13.30
2016,11,04,00,41,13.30
2016,11,04,00,42,13.20
2016,11,04,00,43,13.30
2016,11,04,00,44,13.30
2016,11,04,00,45,13.30
2016,11,04,00,46,13.30
2016,11,04,00,47,13.30
2016,11,04,00,48,13.30
2016,11,04,00,49,13.30
2016,11,04,00,50,13.30
2016,11,04,00,51,13.30
2016,11,04,00,52,13.20
2016,11,04,00,53,13.20
2016,11,04,00,54,13.20
2016,11,04,00,55,13.20
2016,11,04,00,56,13.20
2016,11,04,00,57,13.20
2016,11,04,00,58,13.20
2016,11,04,00,59,13.20
2016,11,04,01,00,13.20
2016,11,04,01,01,13.20
2016,11,04,01,02,13.20
2016,11,04,01,03,13.20
2016,11,04,01,04,13.20
2016,11,04,01,05,13.20
2016,11,04,01,06,13.20
2016,11,04,01,07,13.20
2016,11,04,01,08,13.30
2016,11,04,01,09,13.30
2016,11,04,01,10,13.30
2016,11,04,01,11,13.30
2016,11,04,01,12,13.30
2016,11,04,01,13,13.40
2016,11,04,01,14,13.40
2016,11,04,01,15,13.40
2016,11,04,01,16,13.40
2016,11,04,01,17,13.40
2016,11,04,01,18,13.40
2016,11,04,01,19,13.40
2016,11,04,01,20,13.50
2016,11,04,01,21,13.40
2016,11,04,01,22,13.40
2016,11,04,01,23,13.40
2016,11,04,01,24,13.40
2016,11,04,01,25,13.40
2016,11,04,01,26,13.40
2016,11,04,01,27,13.40
2016,11,04,01,28,13.40
2016,11,04,01,29,13.40
2016,11,04,01,30,13.40
2016,11,04,01,31,13.40
2016,11,04,01,32,13.40
2016,11,04,01,33,13.50
2016,11,04,01,34,13.50
2016,11,04,01,35,13.50
2016,11,04,01,36,13.50
2016,11,04,01,37,13.50
2016,11,04,01,38,13.50
2016,11,04,01,39,13.50
2016,11,04,01,40,13.60
2016,11,04,01,41,13.60
2016,11,04,01,42,13.60
2016,11,04,01,43,13.60
2016,11,04,01,44,13.60
2016,11,04,01,45,13.60
2016,11,04,01,46,13.60
2016,11,04,01,47,13.60
2016,11,04,01,48,13.60
2016,11,04,01,49,13.60
2016,11,04,01,50,13.70
2016,11,04,01,51,13.70
2016,11,04,01,52,13.70
2016,11,04,01,53,13.70
2016,11,04,01,54,13.70
2016,11,04,01,55,13.70
2016,11,04,01,56,13.70
2016,11,04,01,57,13.70
2016,11,04,01,58,13.60
2016,11,04,01,59,13.60
2016,11,04,02,00,13.60
2016,11,04,02,01,13.70
2016,11,04,02,02,13.70
2016,11,04,02,03,13.70
2016,11,04,02,04,13.70
2016,11,04,02,05,13.70
2016,11,04,02,06,13.70
2016,11,04,02,07,13.70
2016,11,04,02,08,13.70
2016,11,04,02,09,13.70
2016,11,04,02,10,13.70
2016,11,04,02,11,13.80
2016,11,04,02,12,13.80
2016,11,04,02,13,13.90
2016,11,04,02,14,13.90
2016,11,04,02,15,13.90
2016,11,04,02,16,13.80
2016,11,04,02,17,13.80
2016,11,04,02,18,13.80
2016,11,04,02,19,13.80
2016,11,04,02,20,13.80
2016,11,04,02,21,13.80
2016,11,04,02,22,13.80
2016,11,04,02,23,13.80
2016,11,04,02,24,13.80
2016,11,04,02,25,13.80
2016,11,04,02,26,13.80
2016,11,04,02,27,13.80
2016,11,04,02,28,13.80
2016,11,04,02,29,13.80
2016,11,04,02,30,13.80
2016,11,04,02,31,13.90
2016,11,04,02,32,13.80
2016,11,04,02,33,13.80
2016,11,04,02,34,13.80
2016,11,04,02,35,13.80
2016,11,04,02,36,13.80
2016,11,04,02,37,13.80
2016,11,04,02,38,13.80
2016,11,04,02,39,13.80
2016,11,04,02,40,13.80
2016,11,04,02,41,13.80
2016,11,04,02,42,13.80
2016,11,04,02,43,13.80
2016,11,04,02,44,13.80
2016,11,04,02,45,13.70
2016,11,04,02,46,13.80
2016,11,04,02,47,13.80
2016,11,04,02,48,13.80
2016,11,04,02,49,13.80
2016,11,04,02,50,13.80
2016,11,04,02,51,13.80
2016,11,04,02,52,13.80
2016,11,04,02,53,13.80
2016,11,04,02,54,13.80
2016,11,04,02,55,13.80
2016,11,04,02,56,13.80
2016,11,04,02,57,13.90
2016,11,04,02,58,13.90
2016,11,04,02,59,13.90
2016,11,04,03,00,13.90
2016,11,04,03,01,13.90
2016,11,04,03,02,13.90
2016,11,04,03,03,13.80
2016,11,04,03,04,13.80
2016,11,04,03,05,13.80
2016,11,04,03,06,13.80
2016,11,04,03,07,13.80
2016,11,04,03,08,13.70
2016,11,04,03,09,13.70
2016,11,04,03,10,13.70
2016,11,04,03,11,13.70
2016,11,04,03,12,13.70
2016,11,04,03,13,13.60
2016,11,04,03,14,13.70
2016,11,04,03,15,13.70
2016,11,04,03,16,13.70
2016,11,04,03,17,13.70
2016,11,04,03,18,13.70
2016,11,04,03,19,13.70
2016,11,04,03,20,13.70
2016,11,04,03,21,13.60
2016,11,04,03,22,13.60
2016,11,04,03,23,13.60
2016,11,04,03,24,13.60
2016,11,04,03,25,13.60
2016,11,04,03,26,13.60
2016,11,04,03,27,13.60
2016,11,04,03,28,13.60
2016,11,04,03,29,13.60
2016,11,04,03,30,13.60
2016,11,04,03,31,13.60
2016,11,04,03,32,13.60
2016,11,04,03,33,13.60
2016,11,04,03,34,13.60
2016,11,04,03,35,13.60
2016,11,04,03,36,13.60
2016,11,04,03,37,13.50
2016,11,04,03,38,13.50
2016,11,04,03,39,13.50
2016,11,04,03,40,13.50
2016,11,04,03,41,13.50
2016,11,04,03,42,13.50
2016,11,04,03,43,13.60
2016,11,04,03,44,13.60
2016,11,04,03,45,13.60
2016,11,04,03,46,13.60
2016,11,04,03,47,13.60
2016,11,04,03,48,13.60
2016,11,04,03,49,13.60
2016,11,04,03,50,13.60
2016,11,04,03,51,13.60
2016,11,04,03,52,13.60
2016,11,04,03,53,13.60
2016,11,04,03,54,13.60
2016,11,04,03,55,13.60
2016,11,04,03,56,13.60
2016,11,04,03,57,13.60
2016,11,04,03,58,13.60
2016,11,04,03,59,13.60
2016,11,04,04,00,13.60
2016,11,04,04,01,13.60
2016,11,04,04,02,13.50
2016,11,04,04,03,13.50
2016,11,04,04,04,13.50
2016,11,04,04,05,13.50
2016,11,04,04,06,13.50
2016,11,04,04,07,13.40
2016,11,04,04,08,13.40
2016,11,04,04,09,13.40
2016,11,04,04,10,13.40
2016,11,04,04,11,13.40
2016,11,04,04,12,13.40
2016,11,04,04,13,13.40
2016,11,04,04,14,13.40
2016,11,04,04,15,13.40
2016,11,04,04,16,13.40
2016,11,04,04,17,13.40
2016,11,04,04,18,13.40
2016,11,04,04,19,13.40
2016,11,04,04,20,13.40
2016,11,04,04,21,13.40
2016,11,04,04,22,13.40
2016,11,04,04,23,13.40
2016,11,04,04,24,13.50
2016,11,04,04,25,13.50
2016,11,04,04,26,13.50
2016,11,04,04,27,13.50
2016,11,04,04,28,13.50
2016,11,04,04,29,13.50
2016,11,04,04,30,13.50
2016,11,04,04,31,13.40
2016,11,04,04,32,13.40
2016,11,04,04,33,13.40
2016,11,04,04,34,13.40
2016,11,04,04,35,13.40
2016,11,04,04,36,13.40
2016,11,04,04,37,13.40
2016,11,04,04,38,13.40
2016,11,04,04,39,13.40
2016,11,04,04,40,13.40
2016,11,04,04,41,13.40
2016,11,04,04,42,13.40
2016,11,04,04,43,13.40
2016,11,04,04,44,13.40
2016,11,04,04,45,13.40
2016,11,04,04,46,13.40
2016,11,04,04,47,13.40
2016,11,04,04,48,13.40
2016,11,04,04,49,13.40
2016,11,04,04,50,13.50
2016,11,04,04,51,13.50
2016,11,04,04,52,13.50
2016,11,04,04,53,13.50
2016,11,04,04,54,13.50
2016,11,04,04,55,13.50
2016,11,04,04,56,13.50
2016,11,04,04,57,13.60
2016,11,04,04,58,13.60
2016,11,04,04,59,13.60
2016,11,04,05,00,13.60
2016,11,04,05,01,13.60
2016,11,04,05,02,13.60
2016,11,04,05,03,13.60
2016,11,04,05,04,13.60
2016,11,04,05,05,13.60
2016,11,04,05,06,13.60
2016,11,04,05,07,13.60
2016,11,04,05,08,13.60
2016,11,04,05,09,13.60
2016,11,04,05,10,13.60
2016,11,04,05,11,13.60
2016,11,04,05,12,13.60
2016,11,04,05,13,13.60
2016,11,04,05,14,13.70
2016,11,04,05,15,13.60
2016,11,04,05,16,13.60
2016,11,04,05,17,13.60
2016,11,04,05,18,13.60
2016,11,04,05,19,13.60
2016,11,04,05,20,13.60
2016,11,04,05,21,13.60
2016,11,04,05,22,13.60
2016,11,04,05,23,13.60
2016,11,04,05,24,13.70
2016,11,04,05,25,13.70
2016,11,04,05,26,13.70
2016,11,04,05,27,13.70
2016,11,04,05,28,13.70
2016,11,04,05,29,13.70
2016,11,04,05,30,13.70
2016,11,04,05,31,13.70
2016,11,04,05,32,13.70
2016,11,04,05,33,13.70
2016,11,04,05,34,13.70
2016,11,04,05,35,13.80
2016,11,04,05,36,13.80
2016,11,04,05,37,13.90
2016,11,04,05,38,13.90
2016,11,04,05,39,13.90
2016,11,04,05,40,13.90
2016,11,04,05,41,14.00
2016,11,04,05,42,13.90
2016,11,04,05,43,13.90
2016,11,04,05,44,13.90
2016,11,04,05,45,13.90
2016,11,04,05,46,13.90
2016,11,04,05,47,13.90
2016,11,04,05,48,13.90
2016,11,04,05,49,13.90
2016,11,04,05,50,13.90
2016,11,04,05,51,13.90
2016,11,04,05,52,13.80
2016,11,04,05,53,13.80
2016,11,04,05,54,13.80
2016,11,04,05,55,13.80
2016,11,04,05,56,13.80
2016,11,04,05,57,13.90
2016,11,04,05,58,13.90
2016,11,04,05,59,14.00
2016,11,04,06,00,14.00
2016,11,04,06,01,14.00
2016,11,04,06,02,14.10
2016,11,04,06,03,14.10
2016,11,04,06,04,14.10
2016,11,04,06,05,14.10
2016,11,04,06,06,14.10
2016,11,04,06,07,14.20
2016,11,04,06,08,14.10
2016,11,04,06,09,14.10
2016,11,04,06,10,14.10
2016,11,04,06,11,14.10
2016,11,04,06,12,14.10
2016,11,04,06,13,14.20
2016,11,04,06,14,14.20
2016,11,04,06,15,14.20
2016,11,04,06,16,14.20
2016,11,04,06,17,14.30
2016,11,04,06,18,14.30
2016,11,04,06,19,14.30
2016,11,04,06,20,14.30
2016,11,04,06,21,14.30
2016,11,04,06,22,14.40
2016,11,04,06,23,14.40
2016,11,04,06,24,14.40
2016,11,04,06,25,14.40
2016,11,04,06,26,14.40
2016,11,04,06,27,14.40
2016,11,04,06,28,14.40
2016,11,04,06,29,14.40
2016,11,04,06,30,14.40
2016,11,04,06,31,14.30
2016,11,04,06,32,14.30
2016,11,04,06,33,14.40
2016,11,04,06,34,14.40
2016,11,04,06,35,14.50
2016,11,04,06,36,14.60
2016,11,04,06,37,14.60
2016,11,04,06,38,14.60
2016,11,04,06,39,14.60
2016,11,04,06,40,14.60
2016,11,04,06,41,14.60
2016,11,04,06,42,14.60
2016,11,04,06,43,14.60
2016,11,04,06,44,14.60
2016,11,04,06,45,14.60
2016,11,04,06,46,14.50
2016,11,04,06,47,14.40
2016,11,04,06,48,14.40
2016,11,04,06,49,14.40
2016,11,04,06,50,14.40
2016,11,04,06,51,14.40
2016,11,04,06,52,14.40
2016,11,04,06,53,14.40
2016,11,04,06,54,14.50
2016,11,04,06,55,14.60
2016,11,04,06,56,14.60
2016,11,04,06,57,14.60
2016,11,04,06,58,14.60
2016,11,04,06,59,14.60
2016,11,04,07,00,14.60
2016,11,04,07,01,14.60
2016,11,04,07,02,14.70
2016,11,04,07,03,14.70
2016,11,04,07,04,14.70
2016,11,04,07,05,14.80
2016,11,04,07,06,14.80
2016,11,04,07,07,14.80
2016,11,04,07,08,14.90
2016,11,04,07,09,14.90
2016,11,04,07,10,14.90
2016,11,04,07,11,14.90
2016,11,04,07,12,15.00
2016,11,04,07,13,15.00
2016,11,04,07,14,15.00
2016,11,04,07,15,14.90
2016,11,04,07,16,14.90
2016,11,04,07,17,14.90
2016,11,04,07,18,14.90
2016,11,04,07,19,14.90
2016,11,04,07,20,14.90
2016,11,04,07,21,14.90
2016,11,04,07,22,15.00
2016,11,04,07,23,15.00
2016,11,04,07,24,15.00
2016,11,04,07,25,15.10
2016,11,04,07,26,15.00
2016,11,04,07,27,15.00
2016,11,04,07,28,14.90
2016,11,04,07,29,14.90
2016,11,04,07,30,14.90
2016,11,04,07,31,15.00
2016,11,04,07,32,15.00
2016,11,04,07,33,15.10
2016,11,04,07,34,15.10
2016,11,04,07,35,15.10
2016,11,04,07,36,15.10
2016,11,04,07,37,15.20
2016,11,04,07,38,15.20
2016,11,04,07,39,15.20
2016,11,04,07,40,15.20
2016,11,04,07,41,15.20
2016,11,04,07,42,15.20
2016,11,04,07,43,15.20
2016,11,04,07,44,15.20
2016,11,04,07,45,15.30
2016,11,04,07,46,15.30
2016,11,04,07,47,15.30
2016,11,04,07,48,15.20
2016,11,04,07,49,15.20
2016,11,04,07,50,15.20
2016,11,04,07,51,15.20
2016,11,04,07,52,15.10
2016,11,04,07,53,15.10
2016,11,04,07,54,15.20
2016,11,04,07,55,15.20
2016,11,04,07,56,15.20
2016,11,04,07,57,15.20
2016,11,04,07,58,15.30
2016,11,04,07,59,15.30
2016,11,04,08,00,15.40
2016,11,04,08,01,15.40
2016,11,04,08,02,15.40
2016,11,04,08,03,15.40
2016,11,04,08,04,15.40
2016,11,04,08,05,15.40
2016,11,04,08,06,15.40
2016,11,04,08,07,15.40
2016,11,04,08,08,15.40
2016,11,04,08,09,15.50
2016,11,04,08,10,15.50
2016,11,04,08,11,15.50
2016,11,04,08,12,15.50
2016,11,04,08,13,15.50
2016,11,04,08,14,15.50
2016,11,04,08,15,15.50
2016,11,04,08,16,15.40
2016,11,04,08,17,15.40
2016,11,04,08,18,15.40
2016,11,04,08,19,15.40
2016,11,04,08,20,15.40
2016,11,04,08,21,15.50
2016,11,04,08,22,15.50
2016,11,04,08,23,15.60
2016,11,04,08,24,15.60
2016,11,04,08,25,15.60
2016,11,04,08,26,15.50
2016,11,04,08,27,15.50
2016,11,04,08,28,15.50
2016,11,04,08,29,15.60
2016,11,04,08,30,15.60
2016,11,04,08,31,15.60
2016,11,04,08,32,15.60
2016,11,04,08,33,15.60
2016,11,04,08,34,15.60
2016,11,04,08,35,15.60
2016,11,04,08,36,15.60
2016,11,04,08,37,15.60
2016,11,04,08,38,15.60
2016,11,04,08,39,15.70
2016,11,04,08,40,15.70
2016,11,04,08,41,15.80
2016,11,04,08,42,15.80
2016,11,04,08,43,15.80
2016,11,04,08,44,15.80
2016,11,04,08,45,15.80
2016,11,04,08,46,15.80
2016,11,04,08,47,15.80
2016,11,04,08,48,15.70
2016,11,04,08,49,15.70
2016,11,04,08,50,15.70
2016,11,04,08,51,15.60
2016,11,04,08,52,15.60
2016,11,04,08,53,15.60
2016,11,04,08,54,15.70
2016,11,04,08,55,15.70
2016,11,04,08,56,15.60
2016,11,04,08,57,15.60
2016,11,04,08,58,15.60
2016,11,04,08,59,15.60
2016,11,04,09,00,15.50
2016,11,04,09,01,15.50
2016,11,04,09,02,15.40
2016,11,04,09,03,15.40
2016,11,04,09,04,15.40
2016,11,04,09,05,15.40
2016,11,04,09,06,15.40
2016,11,04,09,07,15.40
2016,11,04,09,08,15.30
2016,11,04,09,09,15.30
2016,11,04,09,10,15.30
2016,11,04,09,11,15.30
2016,11,04,09,12,15.30
2016,11,04,09,13,15.30
2016,11,04,09,14,15.40
2016,11,04,09,15,15.40
2016,11,04,09,16,15.40
2016,11,04,09,17,15.40
2016,11,04,09,18,15.40
2016,11,04,09,19,15.40
2016,11,04,09,20,15.40
2016,11,04,09,21,15.40
2016,11,04,09,22,15.50
2016,11,04,09,23,15.60
2016,11,04,09,24,15.70
2016,11,04,09,25,15.70
2016,11,04,09,26,15.80
2016,11,04,09,27,15.80
2016,11,04,09,28,15.90
2016,11,04,09,29,15.90
2016,11,04,09,30,15.90
2016,11,04,09,31,15.90
2016,11,04,09,32,15.90
2016,11,04,09,33,15.90
2016,11,04,09,34,15.90
2016,11,04,09,35,16.00
2016,11,04,09,36,16.10
2016,11,04,09,37,16.10
2016,11,04,09,38,16.10
2016,11,04,09,39,16.10
2016,11,04,09,40,16.10
2016,11,04,09,41,16.10
2016,11,04,09,42,16.00
2016,11,04,09,43,16.00
2016,11,04,09,44,16.00
2016,11,04,09,45,16.10
2016,11,04,09,46,16.00
2016,11,04,09,47,16.00
2016,11,04,09,48,16.00
2016,11,04,09,49,16.00
2016,11,04,09,50,15.90
2016,11,04,09,51,15.90
2016,11,04,09,52,15.90
2016,11,04,09,53,15.80
2016,11,04,09,54,15.80
2016,11,04,09,55,15.80
2016,11,04,09,56,15.70
2016,11,04,09,57,15.70
2016,11,04,09,58,15.70
2016,11,04,09,59,15.80
2016,11,04,10,00,15.80
2016,11,04,10,01,15.80
2016,11,04,10,02,15.80
2016,11,04,10,03,15.80
2016,11,04,10,04,15.80
2016,11,04,10,05,15.70
2016,11,04,10,06,15.70
2016,11,04,10,07,15.70
2016,11,04,10,08,15.60
2016,11,04,10,09,15.60
2016,11,04,10,10,15.60
2016,11,04,10,11,15.60
2016,11,04,10,12,15.60
2016,11,04,10,13,15.60
2016,11,04,10,14,15.60
2016,11,04,10,15,15.60
2016,11,04,10,16,15.50
2016,11,04,10,17,15.50
2016,11,04,10,18,15.50
2016,11,04,10,19,15.40
2016,11,04,10,20,15.40
2016,11,04,10,21,15.40
2016,11,04,10,22,15.40
2016,11,04,10,23,15.40
2016,11,04,10,24,15.40
2016,11,04,10,25,15.40
2016,11,04,10,26,15.30
2016,11,04,10,27,15.30
2016,11,04,10,28,15.30
2016,11,04,10,29,15.20
2016,11,04,10,30,15.20
2016,11,04,10,31,15.20
2016,11,04,10,32,15.20
2016,11,04,10,33,15.20
2016,11,04,10,34,15.20
2016,11,04,10,35,15.20
2016,11,04,10,36,15.20
2016,11,04,10,37,15.20
2016,11,04,10,38,15.20
2016,11,04,10,39,15.20
2016,11,04,10,40,15.30
2016,11,04,10,41,15.30
2016,11,04,10,42,15.30
2016,11,04,10,43,15.30
2016,11,04,10,44,15.40
2016,11,04,10,45,15.40
2016,11,04,10,46,15.40
2016,11,04,10,47,15.50
2016,11,04,10,48,15.40
2016,11,04,10,49,15.50
2016,11,04,10,50,15.50
2016,11,04,10,51,15.50
2016,11,04,10,52,15.40
2016,11,04,10,53,15.40
2016,11,04,10,54,15.40
2016,11,04,10,55,15.40
2016,11,04,10,56,15.40
2016,11,04,10,57,15.40
2016,11,04,10,58,15.40
2016,11,04,10,59,15.40
2016,11,04,11,00,15.40
2016,11,04,11,01,15.40
2016,11,04,11,02,15.40
2016,11,04,11,03,15.40
2016,11,04,11,04,15.30
2016,11,04,11,05,15.30
2016,11,04,11,06,15.30
2016,11,04,11,07,15.30
2016,11,04,11,08,15.30
2016,11,04,11,09,15.30
2016,11,04,11,10,15.30
2016,11,04,11,11,15.30
2016,11,04,11,12,15.30
2016,11,04,11,13,15.20
2016,11,04,11,14,15.20
2016,11,04,11,15,15.20
2016,11,04,11,16,15.20
2016,11,04,11,17,15.10
2016,11,04,11,18,15.10
2016,11,04,11,19,15.10
2016,11,04,11,20,15.00
2016,11,04,11,21,14.90
2016,11,04,11,22,14.90
2016,11,04,11,23,14.90
2016,11,04,11,24,14.90
2016,11,04,11,25,14.90
2016,11,04,11,26,14.90
2016,11,04,11,27,14.90
2016,11,04,11,28,14.90
2016,11,04,11,29,14.90
2016,11,04,11,30,14.90
2016,11,04,11,31,14.80
2016,11,04,11,32,14.80
2016,11,04,11,33,14.80
2016,11,04,11,34,14.80
2016,11,04,11,35,14.70
2016,11,04,11,36,14.70
2016,11,04,11,37,14.70
2016,11,04,11,38,14.70
2016,11,04,11,39,14.60
2016,11,04,11,40,14.60
2016,11,04,11,41,14.60
2016,11,04,11,42,14.50
2016,11,04,11,43,14.40
2016,11,04,11,44,14.40
2016,11,04,11,45,14.40
2016,11,04,11,46,14.40
2016,11,04,11,47,14.40
2016,11,04,11,48,14.40
2016,11,04,11,49,14.30
2016,11,04,11,50,14.30
2016,11,04,11,52,14.30
2016,11,04,11,53,14.30
2016,11,04,11,54,14.30
2016,11,04,11,55,14.20
2016,11,04,11,56,14.20
2016,11,04,11,57,14.20
2016,11,04,11,58,14.10
2016,11,04,11,59,14.10
2016,11,04,12,00,14.10
2016,11,04,12,01,14.00
2016,11,04,12,02,14.00
2016,11,04,12,03,14.00
2016,11,04,12,04,13.90
2016,11,04,12,05,13.90
2016,11,04,12,06,13.90
2016,11,04,12,07,13.90
2016,11,04,12,08,13.80
2016,11,04,12,09,13.80
2016,11,04,12,10,13.80
2016,11,04,12,11,13.80
2016,11,04,12,12,13.70
2016,11,04,12,13,13.70
2016,11,04,12,14,13.60
2016,11,04,12,15,13.50
2016,11,04,12,16,13.40
2016,11,04,12,17,13.30
2016,11,04,12,18,13.20
2016,11,04,12,19,13.10
2016,11,04,12,20,13.00
2016,11,04,12,21,12.80
2016,11,04,12,22,12.70
2016,11,04,12,23,12.60
2016,11,04,12,24,12.50
2016,11,04,12,25,12.40
2016,11,04,12,26,12.30
2016,11,04,12,27,12.30
2016,11,04,12,28,12.20
2016,11,04,12,29,12.20
2016,11,04,12,30,12.10
2016,11,04,12,31,12.10
2016,11,04,12,32,12.10
2016,11,04,12,33,12.00
2016,11,04,12,34,12.00
2016,11,04,12,35,11.90
2016,11,04,12,36,11.90
2016,11,04,12,37,11.90
2016,11,04,12,38,11.90
2016,11,04,12,39,11.90
2016,11,04,12,40,11.90
2016,11,04,12,41,11.90
2016,11,04,12,42,11.90
2016,11,04,12,43,11.90
2016,11,04,12,44,11.80
2016,11,04,12,45,11.80
2016,11,04,12,46,11.80
2016,11,04,12,47,11.80
2016,11,04,12,48,11.90
2016,11,04,12,49,11.90
2016,11,04,12,50,11.90
2016,11,04,12,51,11.90
2016,11,04,12,52,12.00
2016,11,04,12,53,12.00
2016,11,04,12,54,12.00
2016,11,04,12,55,11.90
2016,11,04,12,56,11.90
2016,11,04,12,57,11.90
2016,11,04,12,58,11.90
2016,11,04,12,59,11.80
2016,11,04,13,00,11.80
2016,11,04,13,01,11.80
2016,11,04,13,02,11.80
2016,11,04,13,03,11.80
2016,11,04,13,04,11.80
2016,11,04,13,05,11.70
2016,11,04,13,06,11.70
2016,11,04,13,07,11.70
2016,11,04,13,08,11.70
2016,11,04,13,09,11.70
2016,11,04,13,10,11.70
2016,11,04,13,11,11.70
2016,11,04,13,12,11.60
2016,11,04,13,13,11.60
2016,11,04,13,14,11.60
2016,11,04,13,15,11.60
2016,11,04,13,16,11.60
2016,11,04,13,17,11.60
2016,11,04,13,18,11.60
2016,11,04,13,19,11.60
2016,11,04,13,20,11.60
2016,11,04,13,21,11.60
2016,11,04,13,22,11.60
2016,11,04,13,23,11.60
2016,11,04,13,24,11.60
2016,11,04,13,25,11.60
2016,11,04,13,26,11.60
2016,11,04,13,27,11.60
2016,11,04,13,28,11.60
2016,11,04,13,29,11.60
2016,11,04,13,30,11.60
2016,11,04,13,31,11.60
2016,11,04,13,32,11.60
2016,11,04,13,33,11.70
2016,11,04,13,34,11.70
2016,11,04,13,35,11.70
2016,11,04,13,36,11.70
2016,11,04,13,37,11.60
2016,11,04,13,38,11.60
2016,11,04,13,39,11.60
2016,11,04,13,40,11.60
2016,11,04,13,41,11.60
2016,11,04,13,42,11.60
2016,11,04,13,43,11.60
2016,11,04,13,44,11.60
2016,11,04,13,45,11.70
2016,11,04,13,46,11.60
2016,11,04,13,47,11.70
2016,11,04,13,48,11.60
2016,11,04,13,49,11.60
2016,11,04,13,50,11.60
2016,11,04,13,51,11.60
2016,11,04,13,52,11.60
2016,11,04,13,53,11.60
2016,11,04,13,54,11.60
2016,11,04,13,55,11.60
2016,11,04,13,56,11.60
2016,11,04,13,57,11.60
2016,11,04,13,58,11.50
2016,11,04,13,59,11.50
2016,11,04,14,00,11.50
2016,11,04,14,01,11.50
2016,11,04,14,02,11.50
2016,11,04,14,03,11.50
2016,11,04,14,04,11.50
2016,11,04,14,05,11.40
2016,11,04,14,07,11.50
2016,11,04,14,08,11.50
2016,11,04,14,09,11.50
2016,11,04,14,10,11.40
2016,11,04,14,11,11.40
2016,11,04,14,12,11.40
2016,11,04,14,14,11.40
2016,11,04,14,15,11.40
2016,11,04,14,16,11.40
2016,11,04,14,17,11.40
2016,11,04,14,18,11.50
2016,11,04,14,19,11.50
2016,11,04,14,20,11.50
2016,11,04,14,21,11.50
2016,11,04,14,22,11.60
2016,11,04,14,23,11.60
2016,11,04,14,24,11.60
2016,11,04,14,25,11.60
2016,11,04,14,26,11.60
2016,11,04,14,27,11.60
2016,11,04,14,28,11.60
2016,11,04,14,29,11.60
2016,11,04,14,30,11.60
2016,11,04,14,31,11.60
2016,11,04,14,32,11.60
2016,11,04,14,33,11.50
2016,11,04,14,34,11.40
2016,11,04,14,35,11.30
2016,11,04,14,36,11.20
2016,11,04,14,37,11.10
2016,11,04,14,38,11.00
2016,11,04,14,39,10.90
2016,11,04,14,40,10.90
2016,11,04,14,41,10.90
2016,11,04,14,42,10.90
2016,11,04,14,43,10.90
2016,11,04,14,44,10.90
2016,11,04,14,45,10.90
2016,11,04,14,46,11.00
2016,11,04,14,47,11.00
2016,11,04,14,48,11.00
2016,11,04,14,49,11.10
2016,11,04,14,50,11.20
2016,11,04,14,51,11.20
2016,11,04,14,52,11.20
2016,11,04,14,53,11.30
2016,11,04,14,54,11.30
2016,11,04,14,55,11.30
2016,11,04,14,56,11.30
2016,11,04,14,57,11.30
2016,11,04,14,58,11.30
2016,11,04,14,59,11.20
2016,11,04,15,00,11.20
2016,11,04,15,01,11.20
2016,11,04,15,02,11.20
2016,11,04,15,03,11.20
2016,11,04,15,04,11.10
2016,11,04,15,05,11.10
2016,11,04,15,06,11.10
2016,11,04,15,07,11.00
2016,11,04,15,08,11.00
2016,11,04,15,09,10.90
2016,11,04,15,10,10.90
2016,11,04,15,11,10.90
2016,11,04,15,12,10.90
2016,11,04,15,13,10.90
2016,11,04,15,14,10.90
2016,11,04,15,15,10.90
2016,11,04,15,16,10.90
2016,11,04,15,17,11.00
2016,11,04,15,18,11.00
2016,11,04,15,19,11.00
2016,11,04,15,20,11.00
2016,11,04,15,21,11.00
2016,11,04,15,22,11.00
2016,11,04,15,23,11.00
2016,11,04,15,24,11.00
2016,11,04,15,25,11.00
2016,11,04,15,26,11.10
2016,11,04,15,27,11.10
2016,11,04,15,28,11.10
2016,11,04,15,29,11.10
2016,11,04,15,30,11.00
2016,11,04,15,31,11.10
2016,11,04,15,32,11.00
2016,11,04,15,33,11.00
2016,11,04,15,34,11.10
2016,11,04,15,35,11.10
2016,11,04,15,36,11.10
2016,11,04,15,37,11.10
2016,11,04,15,38,11.10
2016,11,04,15,39,11.10
2016,11,04,15,40,11.10
2016,11,04,15,41,11.00
2016,11,04,15,42,11.00
2016,11,04,15,43,11.00
2016,11,04,15,44,11.00
2016,11,04,15,45,11.00
2016,11,04,15,46,11.00
2016,11,04,15,47,11.00
2016,11,04,15,48,11.00
2016,11,04,15,49,11.00
2016,11,04,15,50,11.00
2016,11,04,15,51,11.00
2016,11,04,15,52,11.00
2016,11,04,15,53,11.00
2016,11,04,15,54,10.90
2016,11,04,15,55,11.00
2016,11,04,15,56,11.00
2016,11,04,15,57,10.90
2016,11,04,15,58,10.90
2016,11,04,15,59,10.90
2016,11,04,16,00,10.90
2016,11,04,16,01,10.90
2016,11,04,16,02,10.90
2016,11,04,16,03,10.90
2016,11,04,16,04,10.90
2016,11,04,16,05,10.90
2016,11,04,16,06,10.90
2016,11,04,16,07,10.90
2016,11,04,16,08,10.90
2016,11,04,16,09,10.90
2016,11,04,16,10,10.90
2016,11,04,16,11,10.80
2016,11,04,16,12,10.80
2016,11,04,16,13,10.80
2016,11,04,16,14,10.80
2016,11,04,16,15,10.80
2016,11,04,16,16,10.80
2016,11,04,16,17,10.80
2016,11,04,16,18,10.80
2016,11,04,16,19,10.80
2016,11,04,16,20,10.80
2016,11,04,16,21,10.80
2016,11,04,16,22,10.80
2016,11,04,16,23,10.80
2016,11,04,16,24,10.70
2016,11,04,16,25,10.70
2016,11,04,16,26,10.70
2016,11,04,16,27,10.70
2016,11,04,16,28,10.70
2016,11,04,16,29,10.70
2016,11,04,16,30,10.70
2016,11,04,16,31,10.70
2016,11,04,16,32,10.70
2016,11,04,16,33,10.70
2016,11,04,16,34,10.70
2016,11,04,16,35,10.70
2016,11,04,16,36,10.70
2016,11,04,16,37,10.70
2016,11,04,16,38,10.70
2016,11,04,16,39,10.70
2016,11,04,16,40,10.70
2016,11,04,16,41,10.70
2016,11,04,16,42,10.60
2016,11,04,16,43,10.60
2016,11,04,16,44,10.60
2016,11,04,16,45,10.60
2016,11,04,16,46,10.60
2016,11,04,16,47,10.60
2016,11,04,16,48,10.60
2016,11,04,16,49,10.60
2016,11,04,16,50,10.60
2016,11,04,16,51,10.60
2016,11,04,16,52,10.60
2016,11,04,16,53,10.60
2016,11,04,16,54,10.60
2016,11,04,16,55,10.60
2016,11,04,16,56,10.60
2016,11,04,16,57,10.60
2016,11,04,16,58,10.60
2016,11,04,16,59,10.60
2016,11,04,17,00,10.60
2016,11,04,17,01,10.60
2016,11,04,17,02,10.50
2016,11,04,17,03,10.50
2016,11,04,17,04,10.50
2016,11,04,17,05,10.50
2016,11,04,17,06,10.50
2016,11,04,17,07,10.50
2016,11,04,17,08,10.50
2016,11,04,17,09,10.50
2016,11,04,17,10,10.50
2016,11,04,17,11,10.50
2016,11,04,17,12,10.50
2016,11,04,17,13,10.50
2016,11,04,17,14,10.50
2016,11,04,17,15,10.60
2016,11,04,17,16,10.60
2016,11,04,17,17,10.60
2016,11,04,17,18,10.60
2016,11,04,17,19,10.60
2016,11,04,17,20,10.60
2016,11,04,17,21,10.60
2016,11,04,17,22,10.60
2016,11,04,17,23,10.60